Tracking 31027 objects as of 19-Jul-2025
HD Live streaming from Space Station
objects crossing your sky now

STARLINK-4501

Track STARLINK-4501 now!
10-day predictions
STARLINK-4501 is classified as:


NORAD ID: 53553
Int'l Code: 2022-101AC
Perigee: 546.1 km
Apogee: 547.7 km
Inclination: 53.2 °
Period: 95.4 minutes
Semi major axis: 6917 km
RCS: Unknown
Launch date: August 19, 2022
Source: United States (US)
Launch site: AIR FORCE EASTERN TEST RANGE (AFETR)
Your satellite tracking list
COSMOS 1408 DEB
Track 1 satellite(s)




NASA's NSSDC Master Catalog

Two Line Element Set (TLE):
1 53553U 22101AC  25199.56659855  .00000333  00000-0  39019-4 0  9997
2 53553  53.2177  35.0134 0001169  86.2382 273.8744 15.08836312161628
Source of the keplerian elements: AFSPC